Location: Kresge Environmental Education Center
(43.1138°N, 83.2433°W)
Time: 00:53:23
(UTC-05:00)

Daily predictions for brighter satellites

Satellite Brightness Start Highest point End
(mag) Time Altitude Azimuth Time Altitude Azimuth Time Altitude Azimuth
CZ-4C R/B 3.8 04:10:56 44° ESE 04:10:56 44° ESE 04:16:27 10° SE
Cosmos 2278 Rocket 3.8 04:35:13 28° ESE 04:36:11 30° ESE 04:41:02 10° NE
Milstar 3 4.5 04:36:54 24° S 04:36:54 24° S 04:42:15 10° ESE
USA 234 3.9 04:40:52 10° NE 04:45:37 47° NNE 04:45:37 47° NNE
CENTAUR R/B 4.3 04:57:52 21° N 04:57:52 21° N 05:01:34 10° NNE
Cosmos 1709 Rocket 4.3 05:00:59 60° NNE 05:00:59 60° NNE 05:06:09 10° N
BREEZE-M DEB (TANK) 3.8 05:11:40 48° N 05:11:40 48° N 05:14:37 10° ENE
Cosmos 1850 Rocket 4.3 05:13:37 66° E 05:13:37 66° E 05:18:44 10° NNE
IDEFIX/ARIANE 42P 4.0 05:10:43 10° NNE 05:15:35 36° E 05:20:25 10° SSE
Cosmos 2082 Rocket 3.6 05:13:44 19° N 05:17:04 34° NE 05:22:07 10° ESE
SL-08 ROCKET BODY 4.3 05:16:58 10° S 05:22:49 85° E 05:28:46 10° N
SL-27 R/B 4.4 05:24:01 31° E 05:24:01 31° E 05:26:39 10° SE
SKYMED 2 4.3 05:22:18 10° SSE 05:26:30 52° ENE 05:27:15 46° NE
Cosmos 1833 Rocket 3.3 05:37:24 19° N 05:41:19 53° ENE 05:46:49 10° SE
Cosmos 1703 4.4 05:39:15 19° NNE 05:41:42 42° ENE 05:45:27 10° SSE
Cosmos 371 Rocket 3.9 05:43:18 43° SSW 05:43:18 43° SSW 05:46:46 10° S
Cosmos 1570 Rocket 3.8 05:46:08 60° NW 05:46:56 71° WSW 05:52:07 10° S
Cosmos 2074 Rocket 4.0 05:42:06 10° S 05:48:18 82° E 05:54:33 10° N
Shenzhou-11 Module 3.6 05:49:59 35° E 05:49:59 35° E 05:51:52 10° E
NOSS 3-1 (C) 4.3 05:48:58 10° S 05:54:20 47° ESE 06:00:21 10° NE
CZ-4B R/B 4.3 05:50:13 10° N 05:52:58 27° NNW 05:52:58 27° NNW
CZ-4C R/B 3.4 05:56:10 35° W 05:57:04 36° WSW 06:04:12 10° S
ATLAS CENTAUR R/B 1.9 06:03:02 42° SW 06:03:02 42° SW 06:06:43 10° S
Cosmos 1766 Rocket 3.6 06:04:17 52° W 06:04:28 53° W 06:08:46 10° S
Cosmos 2181 Rocket 4.3 06:02:41 32° NW 06:04:34 39° W 06:10:12 10° SSW
CZ-3B R/B 3.9 06:03:35 42° NNW 06:04:38 68° NE 06:14:09 10° SE
EO 1 Del DPAF 3.1 06:02:29 10° SSE 06:06:17 88° WSW 06:08:16 27° NNW
Abrixas rocket 3.3 06:07:03 34° S 06:07:03 34° S 06:09:29 10° SE
Landsat 4 3.6 06:03:24 10° S 06:07:10 59° WSW 06:07:17 59° W
Cosmos 1741 Rocket 4.3 06:07:05 39° W 06:08:03 44° WNW 06:13:04 10° N
CZ-2C R/B 4.4 06:04:55 10° SSW 06:08:41 35° WSW 06:08:41 35° WSW
COSMO-SKYMED 1 2.8 06:10:24 10° S 06:14:34 46° W 06:15:52 35° NW
FAST Rocket 4.3 06:13:15 28° SSW 06:14:40 69° W 06:18:46 10° N
Cosmos 2058 2.9 06:11:16 10° N 06:15:31 85° E 06:19:41 10° S
Cosmos 2278 Rocket 2.5 06:17:11 24° WSW 06:20:04 42° WNW 06:25:27 10° NNE
BREEZE-M DEB (TANK) 3.9 06:19:14 30° NW 06:20:58 60° NNE 06:31:16 10° ESE
Cosmos 1844 Rocket 4.3 06:27:47 16° NW 06:27:47 16° NW 06:30:25 10° N
Cosmos 1842 Rocket 3.5 06:23:08 10° S 06:27:36 84° W 06:32:08 10° N
USA 234 4.2 06:24:01 10° NE 06:29:32 30° NNW 06:32:57 19° WNW
CZ-4 R/B 3.8 06:26:08 10° NE 06:29:35 26° E 06:32:57 10° SSE
Cosmos 2327 Rocket 4.5 06:25:05 10° SSW 06:31:06 55° WNW 06:37:07 10° N
Cosmos 304 Rocket 3.9 06:29:09 16° NNW 06:32:51 54° WSW 06:37:30 10° S
Cosmos 2341 Rocket 4.4 06:26:47 10° S 06:32:55 68° E 06:39:05 10° NNE
Okean-O 3.1 06:30:41 10° N 06:34:48 38° WNW 06:38:53 10° SW
Cosmos-2242 3.9 06:34:58 21° WSW 06:36:31 26° WNW 06:40:09 10° NNW
MINOTAUR R/B 3.5 06:40:17 59° WNW 06:40:30 65° WSW 06:42:34 10° SSE
Cosmos 1726 2.5 06:36:57 10° S 06:40:38 67° E 06:44:19 10° NNE
Cosmos 2151 3.1 06:38:40 10° NNW 06:42:51 51° W 06:47:00 10° S
Cosmos 2154 Rocket 3.9 06:36:45 10° SSW 06:42:55 71° W 06:49:11 10° N
Cosmos 1626 3.7 06:44:13 18° WSW 06:44:13 18° WSW 06:46:10 10° SW
Tiangong 2 1.0 06:41:53 27° W 06:43:29 87° S 06:46:42 10° E
USA 102 2.4 06:40:11 10° SSE 06:43:51 73° ENE 06:44:11 53° N
PAYLOAD A 4.4 06:40:35 10° N 06:44:54 33° WNW 06:49:07 10° SW
Meteor 2-15 Rocket 4.5 06:43:14 10° N 06:49:22 89° E 06:55:25 10° S
MSX 3.9 06:44:43 10° N 06:50:19 55° WNW 06:55:54 10° SSW
USA 81 4.0 06:45:13 10° N 06:50:32 88° W 06:55:48 10° S
CZ-2C R/B 2.7 06:47:57 10° N 06:52:14 38° WNW 06:56:36 10° SW
USA 229 DEB 4.0 06:46:22 10° WSW 06:52:49 45° NW 06:59:29 10° NNE
USA 229 4.0 06:46:28 10° WSW 06:52:55 46° NW 06:59:36 10° NNE
NOSS 3-1 (A) 3.4 06:49:14 10° SSW 06:54:56 87° SE 07:01:27 10° NE
IDEFIX/ARIANE 42P 3.3 06:50:31 10° N 06:55:04 30° WNW 06:59:36 10° SW
Cosmos 1908 3.7 06:54:21 10° SSW 06:58:02 39° WNW 07:01:45 10° N
SL-27 R/B 4.2 06:57:42 15° W 06:58:11 16° W 07:00:25 10° SW
Meteor 2-14 Rocket 4.5 06:54:07 10° S 07:00:16 87° W 07:06:28 10° N
Cosmos 2082 Rocket 2.7 06:56:02 10° NW 07:01:10 38° WSW 07:06:16 10° S
Thor Agena Rocket 3.6 06:58:04 10° S 07:03:17 67° WSW 07:08:35 10° NNW
SL-8 Rocket 4.2 06:59:00 10° S 07:05:08 78° E 07:11:18 10° N
Cosmos 2369 Rocket 3.8 07:01:39 10° S 07:06:46 39° ESE 07:11:55 10° NE
Cosmos 841 Rocket 3.6 07:01:56 10° NNW 07:06:57 53° WSW 07:11:55 10° S
Cosmos 1500 Rocket 4.2 07:03:45 10° NNW 07:07:42 33° W 07:11:37 10° SSW
Gbstr 26 Del rocket 4.1 07:01:43 10° WSW 07:07:50 73° NNW 07:15:18 10° ENE
Cosmos 2221 2.6 07:10:47 10° SSW 07:14:57 53° W 07:19:12 10° N
Cosmos 1763 Rocket 4.2 07:10:30 10° NW 07:14:59 32° W 07:19:28 10° SSW
Cosmos 2218 Rocket 4.3 07:09:00 10° S 07:15:19 78° E 07:21:35 10° N
Milstar 3 4.5 07:13:55 10° WSW 07:19:12 22° S 07:24:18 10° SE
Timation 2 Rocket 3.9 07:13:02 10° NNW 07:19:16 84° WSW 07:25:16 10° SSE
Cosmos 1503 Rocket 4.0 07:17:06 10° SSW 07:22:16 87° WNW 07:27:32 10° NNE
SMAP 3.1 07:19:30 10° N 07:24:05 57° WNW 07:28:38 10° SSW
Cosmos 1833 Rocket 3.9 07:20:29 10° NW 07:24:49 23° W 07:29:08 10° SSW
Shenzhou-11 Module 2.9 07:22:04 10° W 07:24:55 39° SSW 07:27:45 10° SE
Cosmos 1892 4.1 07:23:13 10° N 07:26:54 41° ENE 07:30:32 10° SSE
Sich 1 3.1 07:23:22 10° N 07:27:42 87° E 07:32:02 10° S
SL-8 R/B 3.8 07:23:00 10° W 07:27:46 61° NNW 07:32:33 10° ENE
Cosmos 2297 4.5 07:24:55 10° WSW 07:29:54 30° NW 07:34:54 10° N
Cosmos 1486 Rocket 4.5 07:25:01 10° SW 07:30:02 41° WNW 07:35:05 10° N
